SCOUT B DEB, 2800

Orbit data source: Space-Track

SCOUT B DEB, 2800 is space debris in LEO originally from a launch on Thu, 04 Aug 1966 UTC launched from the Air Force Western Test Range (AFWTR). Debris objects in space refer to the collection of defunct objects orbiting the Earth. Examples of debris include non-operational satellites, rocket bodies, and fragments generated from explosions, collisions, or faulty payload assembly.

Loading next visibility...
Identifier
2800, 1966-070D
Orbit
LEO
Country
Flag of USUS
Related business
Manufacturer
Unknown
Mission
Spacecraft
Bus & Motor
Unknown
Mass
Unknown
Launch date (UTC)
1966-08-04 (59 years ago)
Launch vehicle
Unknown
Launch site
Air Force Western Test Range (AFWTR)
Object type
Payload
Rocket body
Debris
Shape & HBR
Unknown
Radar Cross Section
Small (<0.1 m²)

Expand to show TLE details & history
Last TLE update: 2 days ago

TLE from 2 days ago
0 SCOUT B DEB
1 02800U 66070D   25258.79451292  .00004957  00000-0  64851-3 0  9992
2 02800  81.4002  87.4846 1408661 292.5417  53.2720 12.38234248550736
Epoch: 2025-09-15T19:04Z
TLE epoch observation values (Epoch: 2025-09-15T19:04:05.916Z)
Latitude
0.00007°
Longitude
166.46591°
Altitude
965.654 km
Speed
7.622 km/s
True Right ascension
05h 49m 56s
True Declination
0° 00' 00"
Sunlit
Object was in daylight at epoch
Visualization orbit readout
Latitude
Unknown
Longitude
Unknown
Altitude
Unknown
Speed
Unknown
Apparent Right ascension
Unknown
Apparent Declination
Unknown
Sunlit
N/A
Visualization observer readout
Local Sidereal Time
16:37:03
Azimuth
Unknown
Elevation
Unknown
Doppler factor
Unknown
Orbital elements
Apogee altitude
2,622.791 km
Perigee altitude
400.049 km
Semi-major axis
7,889.557 km
Eccentricity
0.14087
Inclination
81.4002°
RAAN
87.4846°
Arg. of periapsis
292.5417°
True anomaly
67.57238°
Mean anomaly
53.272°
Eccentric anomaly
60.28146°
Mean motion
3.09716 °/min
Orbital period
116.24 mins
BSTAR
0.00064851
Loading maneuver chart data...
Computing Atmospheric mass density...
Loading historical data...
Loading historical data...
Loading historical data...
Loading historical data...
Loading historical data...
Loading historical data...
Loading historical data...
Other satellites on launch #70 in the year 1966 (1966-08-04 UTC)

Documentation

Showing up to 5 results
|